Location: Unspecified
(0.0000°N, 0.0000°E)
Time: 19:35:55
(UTC+02:00)

Milstar 3 - Visible Passes

Search period start: 19 April 2014 00:00
Search period end: 29 April 2014 00:00
Orbit: 1088 x 5157 km, 28.2° (Epoch: 05 April)

Date Brightness Start Highest point End Pass type
(mag) Time Alt. Az. Time Alt. Az. Time Alt. Az.
19 Apr 5.9 00:44:09 10° WSW 01:01:00 40° W 01:01:00 40° W visible
19 Apr 5.9 20:39:08 10° SW 21:11:29 58° SSE 21:30:10 24° E visible
19 Apr 5.4 23:35:33 10° WSW 00:03:50 71° WNW 00:03:50 71° WNW visible
20 Apr 6.3 19:33:47 10° SW 20:03:31 49° SSE 20:30:44 10° E visible
20 Apr 5.2 22:27:56 10° WSW 23:01:13 89° SSE 23:06:46 66° ENE visible
21 Apr 6.3 01:29:48 10° W 01:40:26 25° W 01:40:26 25° W visible
21 Apr 5.6 04:42:10 10° N 04:42:10 10° N 04:42:46 10° N visible
21 Apr 5.2 07:28:10 10° N 07:29:50 11° NNE 07:31:30 10° NNE visible
21 Apr 5.7 21:21:22 10° SW 21:54:56 74° SSE 22:09:47 35° ENE visible
22 Apr 5.7 00:20:01 10° WSW 00:43:28 50° WNW 00:43:28 50° WNW visible
22 Apr 6.1 20:15:46 10° SW 20:47:43 62° SSE 21:12:54 13° ENE visible
22 Apr 5.3 23:11:20 10° WSW 23:43:16 71° NW 23:46:35 66° N visible
23 Apr 6.2 02:17:03 10° W 02:20:17 14° WNW 02:20:17 14° WNW visible
23 Apr 5.6 22:03:55 10° WSW 22:37:37 86° NNW 22:49:48 42° NE visible
24 Apr 6.0 01:06:05 10° W 01:23:31 34° WNW 01:23:31 34° WNW visible
24 Apr 5.7 04:21:13 12° N 04:21:13 12° N 04:23:24 10° N visible
24 Apr 5.2 07:05:25 10° NNW 07:08:49 14° NNE 07:12:01 10° NE visible
24 Apr 5.9 20:57:45 10° SW 21:31:02 79° SSE 21:53:07 18° ENE visible
24 Apr 5.5 23:55:59 10° WSW 00:25:06 52° NNW 00:26:51 51° NNW visible
25 Apr 5.9 03:23:01 11° NNE 03:23:01 11° NNE 03:23:18 10° NNE visible
25 Apr 5.4 06:04:36 10° N 06:05:59 10° N 06:07:17 10° NNE visible
25 Apr 6.1 19:52:39 10° SW 20:23:43 66° SSE 20:51:49 10° ENE visible
25 Apr 5.6 22:47:19 10° WSW 23:19:52 67° NNW 23:30:16 42° NNE visible
26 Apr 6.3 01:53:48 10° WNW 02:04:00 22° WNW 02:04:00 22° WNW visible
26 Apr 5.6 05:00:27 10° NNW 05:02:37 11° N 05:04:35 10° N visible
26 Apr 5.8 21:40:11 10° WSW 22:13:46 82° NNW 22:33:47 20° NE visible
27 Apr 5.8 00:42:22 10° W 01:07:10 37° NNW 01:07:31 37° NNW visible
27 Apr 5.7 04:00:07 14° N 04:00:07 14° N 04:03:43 10° NNE visible
27 Apr 5.1 06:42:59 10° NNW 06:47:48 17° NNE 06:52:03 10° ENE visible
27 Apr 6.0 20:34:24 10° SW 21:06:54 83° SSE 21:33:51 10° ENE visible
27 Apr 5.7 23:32:07 10° WSW 00:02:03 50° NNW 00:11:07 36° NNE visible
28 Apr 5.9 02:42:12 10° WNW 03:01:53 12° NNE 03:02:47 10° NNE visible
28 Apr 5.3 05:40:49 10° NNW 05:45:02 14° N 05:48:37 10° NE visible
28 Apr 6.2 19:29:47 10° SW 19:59:33 70° SSE 20:29:23 10° ENE visible
28 Apr 5.9 22:23:34 10° WSW 22:56:15 63° NNW 23:14:48 19° NE visible
